Find Starlink 34168

NORAD ID: 64079 Int'l Des: 2025-107 Owner: SPXS Country: US Constellation: starlink operational
LEOCIRCULAR

現在のビュー

3D地球を読み込み中...

About Starlink 34168

Starlink 34168 (NORAD 64079) is a starlink constellation satellite (v2 mini) launched May 21, 2025 by SPXS of US. It operates in LEO, CIRCULAR orbit with a mass of 575.00 kg.

Starlink 34168について

説明を読み込み中...

次回通過

Passes for default location (London). Set your location on the main map for personalized predictions.

高度履歴

Loading altitude history...

軌道要素

1 64079U 25107R 26178.07974157 .00084177 00000-0 30301-2 0 9991
2 64079 43.0021 303.4772 0001706 281.2237 78.8423 15.27619633 62859
Epoch: Jun 27, 2026 • Age: 7 hours

現在のステータス

高度 485.8 km
速度 7.63 km/s
衛星直下点 38.09°N, 43.89°W
打ち上げ日 May 21, 2025
運用期間 1.1 years
タイプ internet

技術仕様

分類 Payload
質量 575.00 kg
乾燥質量 530.00 kg
総質量 575.00 kg
長さ 0.30 m
直径 4.10 m
スパン 29.00 m
形状 Box + pan
製造者 SPXS
バスタイプ Starlink V2MO
フェーズステータス In Orbit
所有者/国 SPXS/US

Most Searched